Location: Zagreb
(45.8000°N, 16.0000°E)
Time: 19:25:07
(UTC+02:00)

Transit 2A - Visible Passes

Search period start: 09 August 2020 00:00
Search period end: 19 August 2020 00:00
Orbit: 591 x 967 km, 66.7° (Epoch: 08 August)

Date Brightness Start Highest point End Pass type
(mag) Time Alt. Az. Time Alt. Az. Time Alt. Az.
09 Aug 9.6 01:48:30 10° NNW 01:49:42 10° N 01:50:54 10° N visible
09 Aug 9.3 03:31:54 10° NNW 03:35:51 17° NNE 03:39:45 10° ENE visible
09 Aug 7.7 05:14:34 10° NNW 05:20:46 48° NE 05:26:39 10° ESE visible
09 Aug 6.7 21:38:42 10° SW 21:44:32 71° NW 21:50:51 10° NNE visible
09 Aug 8.9 23:24:31 10° W 23:29:00 21° NNW 23:33:41 10° NNE visible
10 Aug 9.6 01:13:26 10° NNW 01:14:56 11° N 01:16:27 10° N visible
10 Aug 9.5 02:57:53 10° N 03:01:12 14° NNE 03:04:30 10° NE visible
10 Aug 8.1 04:40:29 10° NNW 04:46:24 38° NE 04:52:04 10° ESE visible
10 Aug 6.4 21:04:30 10° SSW 21:10:20 88° SE 21:16:41 10° NNE visible
10 Aug 8.7 22:49:33 10° W 22:54:29 25° NW 22:59:38 10° NNE visible
11 Aug 9.6 00:38:07 10° NNW 00:40:11 12° N 00:42:15 10° N visible
11 Aug 9.6 02:23:50 10° N 02:26:31 13° NNE 02:29:10 10° NE visible
11 Aug 8.5 04:06:26 10° NNW 04:11:59 30° NE 04:17:21 10° E visible
11 Aug 6.4 20:30:29 10° SSW 20:36:13 65° ESE 20:42:27 10° NE visible
11 Aug 8.3 22:14:43 10° WSW 22:20:01 31° NW 22:25:36 10° NNE visible
12 Aug 9.5 00:02:45 10° NW 00:05:27 13° NNW 00:08:11 10° N visible
12 Aug 9.7 01:49:45 10° N 01:51:47 11° N 01:53:47 10° NNE visible
12 Aug 8.8 03:32:23 10° NNW 03:37:31 24° NE 03:42:30 10° E visible
12 Aug 6.5 05:15:18 10° NNW 05:21:44 88° ENE 05:27:44 10° SSE visible
12 Aug 7.9 21:40:02 10° WSW 21:45:36 39° NW 21:51:32 10° NNE visible
12 Aug 9.4 23:27:26 10° NW 23:30:46 15° NNW 23:34:09 10° N visible
13 Aug 9.7 01:15:33 10° N 01:17:01 11° N 01:18:29 10° NNE visible
13 Aug 9.0 02:58:21 10° NNW 03:02:59 20° NNE 03:07:30 10° ENE visible
13 Aug 6.9 04:41:08 10° NNW 04:47:31 67° NE 04:53:30 10° SE visible
13 Aug 7.4 21:05:30 10° SW 21:11:16 51° NW 21:17:26 10° NNE visible
13 Aug 9.3 22:52:12 10° WNW 22:56:07 17° NNW 23:00:08 10° NNE visible
14 Aug 9.7 00:41:01 10° N 00:42:15 11° N 00:43:28 10° NNE visible
14 Aug 9.2 02:24:20 10° NNW 02:28:23 17° NNE 02:32:22 10° ENE visible
14 Aug 7.4 04:07:01 10° NNW 04:13:14 51° NE 04:19:06 10° SE visible
14 Aug 6.9 20:31:07 10° SW 20:36:59 67° NW 20:43:19 10° NNE visible
14 Aug 9.1 22:17:05 10° WNW 22:21:32 20° NNW 22:26:06 10° NNE visible
15 Aug 9.6 00:06:02 10° NNW 00:07:29 11° N 00:08:56 10° N visible
15 Aug 9.4 01:50:19 10° NNW 01:53:44 15° NNE 01:57:08 10° NE visible
15 Aug 7.8 03:32:55 10° NNW 03:38:54 39° NE 03:44:34 10° ESE visible
15 Aug 6.6 05:16:18 10° NW 05:22:20 48° WSW 05:27:58 10° S visible
15 Aug 8.8 21:42:05 10° W 21:46:59 24° NW 21:52:05 10° NNE visible
15 Aug 9.5 23:30:45 10° NNW 23:32:44 11° N 23:34:43 10° N visible
16 Aug 9.4 01:16:16 10° N 01:19:04 13° NNE 01:21:49 10° NE visible
16 Aug 8.2 02:58:51 10° NNW 03:04:30 31° NE 03:09:53 10° ESE visible
16 Aug 6.4 04:42:00 10° NW 04:48:17 66° WSW 04:54:08 10° SSE visible
16 Aug 8.5 21:07:14 10° W 21:12:30 30° NW 21:18:02 10° NNE visible
16 Aug 9.4 22:55:23 10° NW 22:57:59 13° NNW 23:00:38 10° N visible
17 Aug 9.4 00:42:12 10° N 00:44:20 12° NNE 00:46:27 10° NNE visible
17 Aug 8.5 02:24:49 10° NNW 02:30:02 25° NE 02:35:03 10° E visible
17 Aug 6.3 04:07:45 10° NNW 04:14:10 88° WSW 04:20:06 10° SSE visible
17 Aug 8.1 20:32:30 10° WSW 20:38:05 37° NW 20:43:58 10° NNE visible
17 Aug 9.3 22:20:03 10° NW 22:23:18 14° NNW 22:26:35 10° N visible
18 Aug 9.5 00:08:01 10° N 00:09:35 11° N 00:11:08 10° NNE visible
18 Aug 8.8 01:50:47 10° NNW 01:55:30 21° NNE 02:00:05 10° E visible
18 Aug 6.6 03:33:35 10° NNW 03:39:58 71° NE 03:45:54 10° SE visible
18 Aug 7.4 05:17:52 10° NW 05:22:37 23° WSW 05:27:08 10° SSW visible
18 Aug 9.2 21:44:48 10° WNW 21:48:39 16° NNW 21:52:33 10° NNE visible
18 Aug 9.5 23:33:34 10° N 23:34:49 11° N 23:36:03 10° NNE visible
